• Join FlightAware (Why Join?)
  • Login
  • US Flag GB Flag 
16:41 EDT


 

Airport Tracker/Info


-or-


 

Live Flight TrackerFlight Track Log ✈ N143DE ✈ 01-Feb-2014 ✈ KMIA - KRYY

Flight Track Log - Related Links

Times and Time Zones

All times are in EST time to prevent confusion due to time zone crossing. See the N143DE flight status page for this flight to view local times or setup timezone preferences in your user account.

Time Position Orientation Groundspeed Altitude Reporting Facility
EST Latitude Longitude Course Direction KTS MPH feet Rate Location/Type
08:44 25.8003 -80.2744 50° Northeast 139 160 800  Level Miami Center
08:44 25.8239 -80.2431 50° Northeast 167 192 2,400 1,860 Climbing Miami Center
08:45 25.8369 -80.2247 52° Northeast 160 184 2,900 1,740 Climbing Miami Center
08:45 25.8519 -80.2092 43° Northeast 167 192 4,000 1,680 Climbing Miami Center
08:46 25.8692 -80.1842 53° Northeast 176 203 4,600 1,440 Climbing Miami Center
08:46 25.8961 -80.1872 354° North 207 238 5,500 1,260 Climbing Miami Center
08:47 25.9256 -80.1881 359° North 205 236 5,900 1,380 Climbing Miami Center
08:47 25.9522 -80.2003 338° Northwest 200 230 6,900 1,200 Climbing Miami Center
08:48 25.9817 -80.2011 359° North 229 264 7,100 1,140 Climbing Miami Center
08:48 26.0017 -80.2317 306° West 214 246 8,100 1,380 Climbing Miami Center
08:49 26.0158 -80.2553 304° West 220 253 8,500 1,560 Climbing Miami Center
08:49 26.0317 -80.2928 295° West 211 243 9,700 1,260 Climbing Miami Center
08:50 26.0522 -80.3072 328° Northwest 219 252 9,800 1,260 Climbing Miami Center
08:51 26.0997 -80.3339 333° Northwest 205 236 11,400 1,260 Climbing Miami Center
08:53 26.2111 -80.3928 335° Northwest 217 250 13,700 1,080 Climbing Miami Center
08:54 26.2564 -80.4219 330° Northwest 217 250 14,800 900 Climbing Miami Center
08:55 26.3203 -80.4539 336° Northwest 217 250 15,600 840 Climbing Miami Center
08:56 26.3758 -80.4811 336° Northwest 235 270 16,500 1,020 Climbing Miami Center
08:57 26.4292 -80.5244 324° Northwest 224 258 17,700 900 Climbing Miami Center
08:58 26.4742 -80.5631 322° Northwest 219 252 18,400 900 Climbing Miami Center
08:59 26.5406 -80.5792 348° North 219 252 19,600 960 Climbing Miami Center
09:00 26.5922 -80.6017 339° North 219 252 20,400 900 Climbing Miami Center
09:01 26.6564 -80.6222 344° North 226 260 21,400 900 Climbing Miami Center
09:02 26.7081 -80.6447 339° North 220 253 22,200 780 Climbing Miami Center
09:03 26.7700 -80.6678 342° North 208 239 23,000 660 Climbing Miami Center
09:04 26.8236 -80.6928 337° Northwest 208 239 23,600 600 Climbing Miami Center
09:05 26.8794 -80.7156 340° North 208 239 24,200 600 Climbing Miami Center
09:06 26.9333 -80.7361 341° North 208 239 24,800 600 Climbing Miami Center
09:07 26.9892 -80.7542 344° North 208 239 25,400 480 Climbing Miami Center
09:08 27.0428 -80.7769 339° North 208 239 25,800 420 Climbing Miami Center
09:09 27.0986 -80.7950 344° North 208 239 26,300 420 Climbing Miami Center
09:10 27.1544 -80.8158 342° North 208 239 26,700 300 Climbing Miami Center
09:11 27.2103 -80.8364 342° North 208 239 27,000 180 Climbing Miami Center
09:12 27.2703 -80.8569 343° North 208 239 27,100  Climbing Miami Center
09:13 27.3281 -80.8800 340° North 220 253 27,100 -60 Level Miami Center
09:14 27.3900 -80.9033 342° North 226 260 27,000 -60 Descending Miami Center
09:15 27.4561 -80.9244 344° North 231 266 27,000  Level Miami Center
09:16 27.5203 -80.9500 341° North 236 272 27,000  Level Miami Center
09:17 27.5842 -80.9733 342° North 236 272 27,000  Level Miami Center
09:18 27.6483 -80.9967 342° North 241 277 27,000  Level Miami Center
09:19 27.7103 -81.0225 340° North 241 277 27,000  Level Miami Center
09:20 27.7722 -81.0436 343° North 241 277 27,000  Level Miami Center
09:21 27.8361 -81.0669 342° North 241 277 27,000  Level Miami Center
09:22 27.9003 -81.0928 340° North 241 277 27,000  Level Miami Center
09:23 27.9619 -81.1164 341° North 241 277 27,000  Level Miami Center
09:24 28.0322 -81.1425 342° North 236 272 27,000  Level Miami Center
09:25 28.0961 -81.1683 340° North 236 272 27,000  Level Miami Center
09:26 28.1603 -81.1897 344° North 236 272 27,000  Level Miami Center
09:27 28.2158 -81.2131 340° North 242 278 27,000  Level Miami Center
09:29 28.3733 -81.2719 342° North 246 283 27,000  Level Jacksonville Center
09:30 28.4364 -81.2944 343° North 246 283 27,000  Level Jacksonville Center
09:31 28.4992 -81.3194 341° North 246 283 27,000  Level Jacksonville Center
09:32 28.5664 -81.3444 342° North 246 283 27,100  Climbing Jacksonville Center
09:33 28.6292 -81.3669 343° North 246 283 27,100 -60 Level Jacksonville Center
09:34 28.6942 -81.3897 343° North 246 283 27,000  Descending Jacksonville Center
09:35 28.7569 -81.4147 341° North 246 283 27,100  Climbing Jacksonville Center
09:36 28.8219 -81.4375 343° North 246 283 27,100  Level Jacksonville Center
09:37 28.8869 -81.4581 345° North 246 283 27,100  Level Jacksonville Center
09:38 28.9497 -81.4831 341° North 246 283 27,100  Level Jacksonville Center
09:39 29.0169 -81.5058 343° North 246 283 27,100  Level Jacksonville Center
09:40 29.0817 -81.5264 344° North 246 283 27,100  Level Jacksonville Center
09:41 29.1447 -81.5517 341° North 246 283 27,100  Level Jacksonville Center
09:42 29.2075 -81.5769 341° North 246 283 27,100  Level Jacksonville Center
09:43 29.2747 -81.6022 342° North 246 283 27,100  Level Jacksonville Center
09:44 29.3375 -81.6253 342° North 246 283 27,100  Level Jacksonville Center
09:45 29.4003 -81.6458 344° North 246 283 27,100  Level Jacksonville Center
09:46 29.4653 -81.6714 341° North 246 283 27,100  Level Jacksonville Center
09:47 29.5281 -81.6919 344° North 246 283 27,100  Level Jacksonville Center
09:48 29.5950 -81.7150 343° North 246 283 27,100  Level Jacksonville Center
09:49 29.6581 -81.7381 342° North 246 283 27,100  Level Jacksonville Center
09:50 29.7228 -81.7639 341° North 246 283 27,100  Level Jacksonville Center
09:51 29.7858 -81.7844 344° North 246 283 27,100  Level Jacksonville Center
09:52 29.8506 -81.8103 341° North 246 283 27,100  Level Jacksonville Center
09:53 29.9175 -81.8308 345° North 246 283 27,100  Level Jacksonville Center
09:54 29.9806 -81.8567 340° North 246 283 27,100  Level Jacksonville Center
09:55 30.0392 -81.8753 345° North 246 283 27,100  Level Jacksonville Center
09:56 30.1061 -81.8986 343° North 246 283 27,100  Level Jacksonville Center
09:57 30.1689 -81.9219 342° North 246 283 27,100  Level Jacksonville Center
09:58 30.2339 -81.9453 343° North 246 283 27,100  Level Jacksonville Center
09:59 30.2986 -81.9686 343° North 246 283 27,100  Level Jacksonville Center
10:00 30.3636 -81.9944 341° North 246 283 27,100  Level Jacksonville Center
10:01 30.4283 -82.0181 343° North 246 283 27,100  Level Jacksonville Center
10:02 30.4933 -82.0417 343° North 246 283 27,100  Level Jacksonville Center
10:03 30.5603 -82.0700 340° North 246 283 27,100  Level Jacksonville Center
10:04 30.6231 -82.0936 342° North 246 283 27,100  Level Jacksonville Center
10:05 30.6881 -82.1172 343° North 246 283 27,100  Level Jacksonville Center
10:06 30.7508 -82.1431 341° North 246 283 27,100  Level Jacksonville Center
10:07 30.8156 -82.1644 344° North 246 283 27,100  Level Jacksonville Center
10:08 30.8806 -82.1881 343° North 246 283 27,100  Level Jacksonville Center
10:09 30.9433 -82.2144 340° North 246 283 27,100  Level Jacksonville Center
10:10 31.0061 -82.2406 340° North 246 283 27,100 -60 Level Jacksonville Center
10:11 31.0708 -82.2644 342° North 246 283 27,000 -60 Descending Jacksonville Center
10:12 31.1358 -82.2858 344° North 246 283 27,000  Level Jacksonville Center
10:13 31.2006 -82.3097 342° North 246 283 27,000  Level Jacksonville Center
10:14 31.2633 -82.3336 342° North 246 283 27,000  Level Jacksonville Center
10:15 31.3281 -82.3575 343° North 246 283 27,000 -120 Level Jacksonville Center
10:16 31.3992 -82.3839 342° North 246 283 26,800 -480 Descending Jacksonville Center
10:17 31.4703 -82.4103 342° North 252 290 26,100 -720 Descending Jacksonville Center
10:18 31.5414 -82.4392 341° North 259 298 25,400 -780 Descending Jacksonville Center
10:19 31.6147 -82.4681 341° North 266 306 24,600 -780 Descending Jacksonville Center
10:20 31.6900 -82.4922 345° North 271 312 23,900 -720 Descending Jacksonville Center
10:21 31.7672 -82.5236 341° North 282 325 23,200 -720 Descending Jacksonville Center
10:22 31.8403 -82.5525 341° North 282 325 22,500 -780 Descending Jacksonville Center
10:23 31.9136 -82.5817 341° North 282 325 21,700 -840 Descending Jacksonville Center
10:24 31.9889 -82.6108 342° North 282 325 20,900 -840 Descending Jacksonville Center
10:25 32.0639 -82.6378 343° North 282 325 20,100 -480 Descending Jacksonville Center
10:26 32.1372 -82.6669 341° North 282 325 20,000 -60 Descending Jacksonville Center
10:27 32.2214 -82.7008 341° North 279 321 20,000  Level Atlanta Center
10:28 32.2906 -82.7292 341° North 268 308 20,000  Level Atlanta Center
10:29 32.3597 -82.7528 344° North 263 303 20,000  Level Atlanta Center
10:30 32.4289 -82.7814 341° North 257 296 20,000  Level Atlanta Center
10:31 32.4981 -82.8075 342° North 257 296 20,000  Level Atlanta Center
10:32 32.5508 -82.8536 324° Northwest 251 289 20,000  Level Atlanta Center
10:33 32.6075 -82.9069 322° Northwest 244 281 20,000 -60 Level Atlanta Center
10:34 32.6622 -82.9606 320° Northwest 257 296 19,900 -660 Descending Atlanta Center
10:35 32.7256 -83.0217 321° Northwest 269 310 18,700 -1,260 Descending Atlanta Center
10:36 32.7908 -83.0875 320° Northwest 280 322 17,400 -1,320 Descending Atlanta Center
10:37 32.8539 -83.1461 322° Northwest 285 328 16,100 -1,320 Descending Atlanta Center
10:38 32.9169 -83.2075 321° Northwest 285 328 14,800 -1,260 Descending Atlanta Center
10:39 32.9736 -83.2639 320° Northwest 285 328 13,600 -1,320 Descending Atlanta Center
10:40 33.0386 -83.3278 321° Northwest 290 334 12,200 -1,320 Descending Atlanta Center
10:41 33.1122 -83.3964 322° Northwest 295 339 11,000 -1,200 Descending Atlanta Center
10:42 33.1731 -83.4556 321° Northwest 295 339 9,800 -1,200 Descending Atlanta Center
10:43 33.2336 -83.5197 318° Northwest 289 333 8,700 -900 Descending Atlanta Center
10:44 33.2925 -83.5742 322° Northwest 284 327 8,000 -420 Descending Atlanta Center
10:45 33.3511 -83.6308 321° Northwest 279 321 7,900 -60 Descending Atlanta Center
10:46 33.4014 -83.6781 322° Northwest 274 315 7,900 -120 Level Atlanta Center
10:48 33.5000 -83.7500 329° Northwest 264 304 7,700 -540 Descending Atlanta TRACON
10:50 33.6333 -83.8167 337° Northwest 272 313 6,200 -600 Descending Atlanta TRACON
10:51 33.7167 -83.8500 342° North 254 292 5,900 -180 Descending Atlanta TRACON
10:52 33.7833 -83.8833 337° Northwest 246 283 5,900  Level Atlanta TRACON
10:53 33.8500 -83.9000 348° North 244 281 5,900  Level Atlanta TRACON
10:54 33.9000 -83.9500 320° Northwest 234 269 5,900  Level Atlanta TRACON
10:55 33.9500 -84.0000 320° Northwest 237 273 5,900 -300 Level Atlanta TRACON
10:56 34.0000 -84.0500 320° Northwest 238 274 5,400 -660 Descending Atlanta TRACON
10:57 34.0167 -84.1167 287° West 221 254 4,700 -780 Descending Atlanta TRACON
10:58 34.0333 -84.1833 287° West 218 251 4,000 -420 Descending Atlanta TRACON
10:59 34.0333 -84.2667 270° West 195 224 3,900 -60 Descending Atlanta TRACON
11:00 34.0500 -84.3167 292° West 191 220 3,900  Level Atlanta TRACON
11:01 34.0500 -84.3833 270° West 190 219 3,900  Level Atlanta TRACON
11:02 34.0500 -84.4333 270° West 187 215 3,900  Level Atlanta TRACON
11:03 34.0667 -84.5000 287° West 191 220 3,900 -480 Level Atlanta TRACON
11:04 34.0667 -84.5833 270° West 206 237 2,900 -420 Descending Atlanta TRACON
11:05 34.0667 -84.6333 270° West 177 204 3,100 -300 Climbing Atlanta TRACON
11:06 34.0333 -84.6500 203° Southwest 139 160 2,400 -420 Descending Atlanta TRACON
11:07 34.0000 -84.6500 180° South 141 162 2,300 -60 Descending Atlanta TRACON
11:08 34.0000 -84.6500 180° South 130 150 2,300  Level Atlanta TRACON